Notices

What's New in latest Release from April 7th, 2021:

- Updated Glossary, including Speed of Maximum Gust, and Total Hourly Precipitation

- Updated national and regional climate services offices contacts and prices information

- Addition of station inventory lists for 1981-2010, 1971-2000, and 1961-1990 Normals.

If you haven't already, please take our survey and provide feedback about our website: https://eccc.sondage-survey.ca/f/LanguageSelection.aspx?s=442ca660-fcf1-47c0-95a9-59707d6fd709

Hourly Data Report for October 31, 2003

TORONTO CITY
ONTARIO

43°40'00.000" N
79°24'00.000" W
112.50 m
6158355
71508
XTO

Download Data

Hourly Data (October 2003)
Hourly Data Report for October 31, 2003
TIME
LST
Temp Definition
°C
Dew Point Definition
°C
Rel Hum Definition
%
Precip. Amount Definition
mm

Wind Dir Definition
10's deg

Wind Spd Definition
km/h
Visibility Definition
km
Stn Press Definition
kPa
Hmdx Definition


Wind Chill Definition


Weather Definition


00:00 9.9 7.0 82   LegendMM LegendMM LegendMM 100.33     LegendNANA
01:00 10.0 7.0 82   LegendMM LegendMM LegendMM 100.32     LegendNANA
02:00 9.6 6.9 83   LegendMM LegendMM LegendMM 100.28     LegendNANA
03:00 9.7 7.0 83   LegendMM LegendMM LegendMM 100.24     LegendNANA
04:00 9.2 6.8 85   LegendMM LegendMM LegendMM 100.22     LegendNANA
05:00 8.7 6.9 88   LegendMM LegendMM LegendMM 100.21     LegendNANA
06:00 8.6 6.9 89   LegendMM LegendMM LegendMM 100.21     LegendNANA
07:00 9.5 7.6 88   LegendMM LegendMM LegendMM 100.22     LegendNANA
08:00 10.1 7.9 86   LegendMM LegendMM LegendMM 100.25     LegendNANA
09:00 13.6 9.7 77   LegendMM LegendMM LegendMM 100.27     LegendNANA
10:00 15.2 9.8 70   LegendMM LegendMM LegendMM 100.27     LegendNANA
11:00 15.6 9.4 67   LegendMM LegendMM LegendMM 100.25     LegendNANA
12:00 17.4 10.4 63   LegendMM LegendMM LegendMM 100.23     LegendNANA
13:00 17.9 11.1 64   LegendMM LegendMM LegendMM 100.19     LegendNANA
14:00 18.3 11.8 66   LegendMM LegendMM LegendMM 100.18     LegendNANA
15:00 18.0 11.8 67   LegendMM LegendMM LegendMM 100.14     LegendNANA
16:00 17.2 11.9 71   LegendMM LegendMM LegendMM 100.21     LegendNANA
17:00 15.9 12.3 79   LegendMM LegendMM LegendMM 100.24     LegendNANA
18:00 16.5 12.5 77   LegendMM LegendMM LegendMM 100.26     LegendNANA
19:00 16.0 12.2 78   LegendMM LegendMM LegendMM 100.29     LegendNANA
20:00 15.9 12.8 82   LegendMM LegendMM LegendMM 100.23     LegendNANA
21:00 14.5 12.3 87   LegendMM LegendMM LegendMM 100.22     LegendNANA
22:00 16.6 14.0 85   LegendMM LegendMM LegendMM 100.25     LegendNANA
23:00 16.0 13.5 85   LegendMM LegendMM LegendMM 100.23     LegendNANA

Notes on Data Quality.

Legend

  • E = Estimated
  • M = Missing
  • NA = Not Available*
  • [empty] = Indicates an unobserved value
Date modified: